Terminal Aerodrome Forecast
Issued by NWS

Current Version | Previous Version | Text Only | Print | Product List | Glossary On
Versions: 1 2 3 4 5 6 7 8 9 10 11 12 13 14 15 16 17 18 19 20 21 22 23 24 25 26 27 28 29 30 31 32 33 34 35 36 37 38 39 40 41 42 43 44 45 46 47 48 49 50
000
FTAK31 PANC 061626 AAA
TAFASN
TAF AMD
PASN 061626Z 0616/0712 23018G28KT 5SM BR BKN010
      TEMPO 0616/0618 3SM BR BKN004
     FM062000 23018G28KT P6SM VCSH SCT015 BKN025
     FM070300 25022G32KT P6SM SCT025 BKN040=

USA.gov is the U.S. government's official web portal to all federal, state and local government web resources and services.